Regional Weather Roundup
Issued by NWS

Home | Current Version | Previous Version | Text Only | Print | Product List | Glossary On
Versions: 1 2 3 4 5 6 7 8 9 10 11 12 13 14 15 16 17 18 19 20 21 22 23 24 25 26 27 28 29 30 31 32 33 34 35 36 37 38 39 40 41 42 43 44 45 46 47 48 49 50
000
ASUS44 KFWD 012215
RWRTX
NORTH TEXAS HOURLY WEATHER ROUNDUP
NATIONAL WEATHER SERVICE FORT WORTH TX
500 PM CDT WED APR 01 2015

NOTE: "FAIR" INDICATES FEW OR NO CLOUDS BELOW 12,000 FEET WITH NO
SIGNIFICANT WEATHER AND/OR OBSTRUCTIONS TO VISIBILITY.

TXZ118-119-012300-
DALLAS/FORT WORTH METROPLEX

CITY           SKY/WX    TMP DP  RH WIND       PRES   REMARKS
DFW AIRPORT    CLOUDY    75  63  66 S14       29.83
DALLAS LOVE    CLOUDY    78  62  57 S15       29.83S
FTW MEACHAM    CLOUDY    77  63  61 S17G24    29.81F THUNDER
DAL-EXECUTIVE  PTSUNNY   78  62  57 S8G20     29.83S
FTW-ALLIANCE   TSTM      70  66  87 SE7       29.81F FOG
FTW-NAS-JRB    PTSUNNY   80  64  58 S20G28    29.85F THUNDER
FTW-SPINKS     PTSUNNY   79  63  57 S16       29.84S
ARLINGTON      PTSUNNY   80  62  54 SE14G21   29.83R
GRAND PRAIRIE  MOSUNNY   79  64  61 S14G24    29.85R
LANCASTER      PTSUNNY   76  61  59 S14G21    29.85R
$$

TXZ091>094-102>105-117-120-121-131>134-012300-
NORTH CENTRAL TEXAS

CITY           SKY/WX    TMP DP  RH WIND       PRES   REMARKS
SHRMAN/DENISON CLOUDY    77  69  77 SE17      29.82F
GAINESVILLE    PTSUNNY   76  64  66 S20       29.81F
BOWIE          PTSUNNY   80  63  56 SE13G25   29.78F
BRIDGEPORT     PTSUNNY   76  65  67 SE15G23   29.81F
DECATUR        PTSUNNY   74  62  65 S23       29.81F
DENTON         LGT RAIN  72  67  84 S12       29.80F
MCKINNEY       CLOUDY    77  64  64 S14G23    29.83F
GREENVILLE     CLOUDY    77  61  57 S14G20    29.85F
ROCKWALL       CLOUDY    78  63  59 S17G24    29.83F
TERRELL        PTSUNNY   79  63  57 S17       29.84F
WAXAHACHIE     PTSUNNY   76  64  67 S10G24    29.85S
CLEBURNE       MOSUNNY   79  68  69 S14G21    29.83F
GRANBURY         N/A     83  63  51 S17G24    29.80F
$$

TXZ083>090-098>101-113>116-127>130-139>142-154-155-012300-
WESTERN NORTH TEXAS

CITY           SKY/WX    TMP DP  RH WIND       PRES   REMARKS
WICHITA FALLS  MOSUNNY   82  62  50 S21G28    29.73F
WF-KICKAPOO    SUNNY     84  61  44 S20G25    29.75F
VERNON         SUNNY     85  45  24 S18       29.71F
ABILENE        SUNNY     85  50  29 S14G24    29.78F
ABILENE-DYESS  SUNNY     84  55  36 SW14G23   29.75F
BRECKENRIDGE   MOSUNNY   85  55  36 S14       29.76F
GRAHAM         MOSUNNY   83  62  49 SE14G21   29.75F
MINERAL WELLS  MOSUNNY   83  61  47 S16G23    29.77F
STEPHENVILLE   MOSUNNY   76  63  63 S13G21    29.83F
COMANCHE       MOSUNNY   75  64  67 S10G16    29.82S
BROWNWOOD      FOG       64  61  88 S21G37    29.84R VSB 3/4
COLEMAN        MOSUNNY   83  57  40 SW7       29.80F
BRADY          LGT RAIN  79  57  47 S21       29.81S
$$

TXZ143>147-156>162-174-175-012300-
CENTRAL TEXAS

CITY           SKY/WX    TMP DP  RH WIND       PRES   REMARKS
WACO           PTSUNNY   77  64  64 S21       29.83F
WACO-MCGREGOR  PTSUNNY   81  63  54 S21G28    29.85F
HILLSBORO      PTSUNNY   79  64  59 S24       29.84F
CORSICANA      CLOUDY    79  64  60 S13       29.85F
MEXIA          MOSUNNY   78  64  61 S18       29.84F
HEARNE         PTSUNNY   80  66  62 SE13      29.88F
CAMERON        MOSUNNY   78  64  63 S13G22    29.86F
TEMPLE         MOSUNNY   81  61  50 S16G28    29.84F
KILLEEN        PTSUNNY   78  62  58 S17G23    29.84F
KILLEEN-SKYLRK MOSUNNY   79  61  53 MISG      29.85F
FORT HOOD      MOSUNNY   78  62  57 S15       29.84F
GATESVILLE     MOSUNNY   79  61  53 S18       29.86F
HAMILTON       MOSUNNY   76  62  61 S16G25    29.85F
$$

TXZ095>097-106>112-122>126-135>138-148>153-164>167-012300-
EAST TEXAS

CITY           SKY/WX    TMP DP  RH WIND       PRES   REMARKS
SULPHUR SPRNGS PTSUNNY   78  62  59 S15G22    29.87S
MOUNT PLEASANT CLOUDY    77  62  59 S13G18    29.87F
GILMER         PTSUNNY   78  62  57 SE10G17   29.87F
MINEOLA        PTSUNNY   79  63  57 S9        29.87F
TYLER          CLOUDY    80  62  54 S16G22    29.86F
LONGVIEW       CLOUDY    79  61  53 S12G23    29.87F
MARSHALL       PTSUNNY   81  61  49 S13       29.91F
ATHENS         PTSUNNY   79  61  53 S15G25    29.84F
PALESTINE      MOSUNNY   82  64  52 S10G18    29.87F
JACKSONVILLE   CLOUDY    79  61  53 S14G20    29.91F
HENDERSON      CLOUDY    80  61  51 S12       29.89F
NACOGDOCHES    CLOUDY    81  61  50 SW13      29.90F
LUFKIN         CLOUDY    76  62  62 S9        29.91F
$$

SUPPLEMENTAL OBSERVATIONS (CENTRAL)

CITY           SKY/WX    TMP DP  RH WIND       PRES   REMARKS
LAKE TEXOMA      N/A     75  64  69 S12         N/A
CADDO GRASSLND   N/A     77  64  65 S14         N/A
PAT MAYSE LAKE   N/A     72  64  78 SE12        N/A
GREENVILLE       N/A     77  63  61 S12G24      N/A
CEDAR HILL       N/A     79  63  57 S12G20      N/A
MCGREGOR         N/A     79  64  61 S21G26      N/A
TEMPLE           N/A     79  63  57 S15G22      N/A
$$

SUPPLEMENTAL OBSERVATIONS (WEST)

CITY           SKY/WX    TMP DP  RH WIND       PRES   REMARKS
MILLERS CREEK    N/A     84  48  28 S21G28      N/A
POSSUM KINGDOM   N/A     82  55  39 S12G20      N/A
LBJ GRASSLAND    N/A     75  59  57 S18G25      N/A
GRANBURY         N/A     81  59  47 S20         N/A
HAMBY            N/A     84  52  32 S14G22      N/A
IVIE RESERVOIR   N/A     84  55  37 S9G17       N/A
COLORADO BEND    N/A     79  61  53 S13G21      N/A
$$

SUPPLEMENTAL OBSERVATIONS (EAST)

CITY           SKY/WX    TMP DP  RH WIND       PRES   REMARKS
CLARKSVILLE      N/A     75  66  73 S13         N/A
TEXARKANA        N/A    N/A N/A N/A S6G17       N/A
LINDEN           N/A     81  59  47 S7G16       N/A
GILMER           N/A     79  61  53 S8G23       N/A
HENDERSON        N/A     81  59  47 S15G24      N/A
LUFKIN           N/A    N/A N/A N/A MISG        N/A
N SABINE NF      N/A     77  63  61 MISG        N/A
S SABINE NF      N/A     73  63  68 CALM        N/A
$$

SUPPLEMENTAL OBSERVATIONS ARE A COLLECTION OF AUTOMATED INSTRUMENTS
THAT ARE MAINTAINED BY A VARIETY OF FEDERAL AND STATE AGENCIES.
CERTAIN ELEMENTS...SUCH AS HUMIDITY VALUES AND SUSTAINED WIND
SPEEDS...MAY BE APPROXIMATED.



USA.gov is the U.S. government's official web portal to all federal, state and local government web resources and services.